Regional Weather Roundup
Issued by NWS

Home | Current Version | Previous Version | Graphics & Text | Print | Product List | Glossary On
Versions: 1 2 3 4 5 6 7 8 9 10 11 12 13 14 15 16 17 18 19 20 21 22 23 24 25 26 27 28 29 30 31 32 33 34 35 36 37 38 39 40 41 42 43 44 45 46 47 48 49 50
935
ASUS43 KDTX 222310
RWRMI
MICHIGAN HOURLY REGIONAL WEATHER ROUNDUP
NATIONAL WEATHER SERVICE DETROIT/PONTIAC MI
700 PM EDT SAT APR 22 2017

NOTE: "FAIR" INDICATES FEW OR NO CLOUDS BELOW 12,000 FEET WITH NO
SIGNIFICANT WEATHER AND/OR OBSTRUCTION TO VISIBILITY.

MIZ047>049-052>055-059>063-066>070-074>076-081>083-230000-
SOUTHEAST LOWER MICHIGAN

CITY           SKY/WX    TMP DP  RH WIND       PRES   REMARKS
ADRIAN         CLOUDY    58  33  39 E12       30.11R
ALMA           SUNNY     60  32  35 S3        30.13S
ANN ARBOR      SUNNY     59  31  34 NE7       30.10S
BAD AXE        SUNNY     54  20  26 NE5       30.13F
CARO           SUNNY     56  27  33 CALM      30.12F
DETROIT CITY   SUNNY     55  33  43 E9        30.11S
DETROIT        CLOUDY    60  29  30 NE13      30.11S
FLINT          SUNNY     58  28  32 NE5       30.13S
GROSSE ILE     MOSUNNY   55  34  45 E8        30.10S
HILLSDALE      CLOUDY    57  32  38 N6        30.10S
HOWELL         SUNNY     57  26  30 NE5       30.11S

CITY           SKY/WX    TMP DP  RH WIND       PRES   REMARKS
JACKSON        SUNNY     59  31  34 NE8       30.11S
LAMBERTVILLE   CLOUDY    54  34  47 E5        30.11S
LANSING        SUNNY     58  25  28 E8        30.14S
LAPEER         FAIR      57  27  31 NE7       30.13S
MASON          SUNNY     57  33  39 NE9       30.13R
MONROE         CLOUDY    56  36  47 E9        30.10S
MT. CLEMENS    PTSUNNY   57  33  41 NE6       30.10S
PONTIAC        MOSUNNY   58  28  32 E9        30.10S
PORT HOPE        N/A     46  34  62 E8        30.12F
PORT HURON     SUNNY     48  30  49 NE6       30.14S
TRI CITIES     SUNNY     59  33  37 SE5       30.13S
MIDLAND        FAIR      60  32  33 SE5       30.11S
TROY           SUNNY     59  27  29 NE8       30.12F
SAGINAW HB     SUNNY     59  27  29 N3        30.12S
$$
MIZ043>046-050>051-056>058-064>065-071>073-077>080-230000-
SOUTHWEST LOWER MICHIGAN

CITY           SKY/WX    TMP DP  RH WIND       PRES   REMARKS
BATTLE CREEK   SUNNY     60  32  34 N9        30.13R
BENTON HARBOR  SUNNY     50  29  44 N9        30.15S
BIG RAPIDS     SUNNY     62  20  20 CALM      30.10S
COLDWATER      SUNNY     58  31  34 N8        30.11S
FREMONT        FAIR      59  26  28 NW13      30.11F
HOLLAND        SUNNY     55  26  32 NW10      30.15S
GRAND RAPIDS   MOSUNNY   63  28  26 VRB3      30.12S
IONIA          FAIR      59  31  35 SE5       30.12S
KALAMAZOO      SUNNY     61  26  26 NE8       30.13S
LUDINGTON      SUNNY     55  24  30 N7        30.14F
MARSHALL       SUNNY     58  30  34 N3        30.11S
MOUNT PLEASANT SUNNY     63  26  25 CALM      30.10S
MUSKEGON       MOSUNNY   57  28  33 W8        30.14S
SOUTH HAVEN    SUNNY     50  28  41 N9G16     30.15S
$$
MIZ016>042-230000-
NORTHERN LOWER MICHIGAN

CITY           SKY/WX    TMP DP  RH WIND       PRES   REMARKS
ALPENA         SUNNY     55  27  34 E9        30.10S
BEAVER ISLAND  SUNNY     55  22  27 SW8       30.10F
BELLAIRE       SUNNY     56  18  22 NW5       30.14R
CADILLAC       SUNNY     60  20  20 W3        30.10S
CHARLEVOIX     SUNNY     56  23  28 SW8       30.15F
FRANKFORT      SUNNY     55  23  28 CALM      30.14F
GAYLORD        SUNNY     59  21  23 VRB5      30.11R
GRAYLING       SUNNY     60  26  26 W8        30.11R
HARBOR SPRINGS SUNNY     44  31  60 SW3       30.12F
HOUGHTON LAKE  SUNNY     61  24  24 SW5       30.10S
MANISTEE       SUNNY     55  25  31 W6        30.14F
OSCODA         SUNNY     51  22  31 S5        30.12F
PELLSTON       SUNNY     58  19  22 SW9       30.10F
ROGERS CITY    SUNNY     55  22  28 CALM      30.11S
TRAVERSE CITY  SUNNY     55  27  34 NE3       30.12S
$$
MIZ007>008-015-230000-
EASTERN UPPER MICHIGAN

CITY           SKY/WX    TMP DP  RH WIND       PRES   REMARKS
KINROSS        SUNNY     58  26  29 SW8       30.07F
MACKINAC ISLAN SUNNY     50  27  40 SW8       30.10S
NEWBERRY       SUNNY     55  28  35 S9        30.06S
S. S. MARIE    SUNNY     60  30  32 W6        30.05F
MUNISING         N/A     64  25  22 S14G21    30.03R
$$
MIZ004>006-011>014-085-230000-
CENTRAL UPPER MICHIGAN

CITY           SKY/WX    TMP DP  RH WIND       PRES   REMARKS
MANISTIQUE     SUNNY     44  32  62 S9        30.09S
ESCANABA       SUNNY     51  31  46 S9        30.08F
MENOMINEE      SUNNY     61  29  29 SW18      30.08F
SAWYER-GWINN   MOSUNNY   66  28  24 W10       30.03F
$$
MIZ001>003-009>011-084-230000-
WESTERN UPPER MICHIGAN

CITY           SKY/WX    TMP DP  RH WIND       PRES   REMARKS
IRON MOUNTAIN  SUNNY     67  24  19 W8        30.04S
HOUGHTON       MOSUNNY   63  29  27 W17G29    30.00F
COPPER HARBOR    N/A     63  30  28 W8G21     29.98F
IRONWOOD       MOSUNNY   66  29  24 W9        30.05R
$$

ABBREVIATIONS USED IN REMARKS
   TC - TEMPERATURE IN CELSIUS
  WCI - WIND CHILL INDEX
   HX - HEAT INDEX
  VSB - VISIBILITY





USA.gov is the U.S. government's official web portal to all federal, state and local government web resources and services.